| time (UTC) | temp C | wind direction | speed KPH | gust KPH | rain 1hr cm | rain 24hr cm | rain mn cm | humidity % | barometer mb |
| 20260831181940 | 31 | 33 | 0.0 | 1.6 | 0.00 | 0.00 | 0.00 | 59 | 1013.9 |
| 20260831181435 | 31 | 49 | 1.6 | 3.2 | 0.00 | 0.00 | 0.00 | 60 | 1013.8 |
| 20260831180929 | 31 | 38 | 1.6 | 3.2 | 0.00 | 0.00 | 0.00 | 62 | 1014.0 |
| 20260831180424 | 30 | 27 | 0.0 | 1.6 | 0.00 | 0.00 | 0.00 | 63 | 1013.8 |
| 20260831175923 | 30 | 14 | 1.6 | 3.2 | 0.00 | 0.00 | 0.00 | 63 | 1013.8 |
| 20260831175420 | 30 | 13 | 1.6 | 3.2 | 0.00 | 0.00 | 0.00 | 63 | 1014.0 |
| 20260831174915 | 30 | 9 | 3.2 | 3.2 | 0.00 | 0.00 | 0.00 | 63 | 1014.0 |
| 20260831174410 | 30 | 17 | 1.6 | 3.2 | 0.00 | 0.00 | 0.00 | 63 | 1014.2 |
| 20260831173909 | 30 | 3 | 1.6 | 3.2 | 0.00 | 0.00 | 0.00 | 64 | 1014.1 |
| 20260831173403 | 30 | 344 | 3.2 | 4.8 | 0.00 | 0.00 | 0.00 | 64 | 1014.2 |
| 20260831172859 | 30 | 16 | 1.6 | 3.2 | 0.00 | 0.00 | 0.00 | 65 | 1014.2 |
| 20260831172355 | 30 | 7 | 1.6 | 3.2 | 0.00 | 0.00 | 0.00 | 66 | 1014.3 |
| 20260831171854 | 30 | 355 | 3.2 | 4.8 | 0.00 | 0.00 | 0.00 | 68 | 1014.4 |
| 20260831171351 | 29 | 331 | 4.8 | 4.8 | 0.00 | 0.00 | 0.00 | 67 | 1014.1 |
| 20260831170848 | 30 | 15 | 1.6 | 3.2 | 0.00 | 0.00 | 0.00 | 67 | 1014.3 |
| 20260831170343 | 29 | 15 | 1.6 | 3.2 | 0.00 | 0.00 | 0.00 | 69 | 1014.2 |
| 20260831165839 | 30 | 359 | 3.2 | 3.2 | 0.00 | 0.00 | 0.00 | 68 | 1014.4 |
| 20260831165335 | 30 | 19 | 1.6 | 1.6 | 0.00 | 0.00 | 0.00 | 71 | 1014.4 |
| 20260831164832 | 30 | 18 | 0.0 | 1.6 | 0.00 | 0.00 | 0.00 | 67 | 1014.5 |
| 20260831164328 | 30 | 22 | 0.0 | 1.6 | 0.00 | 0.00 | 0.00 | 67 | 1014.5 |
| 20260831163823 | 30 | 24 | 0.0 | 1.6 | 0.00 | 0.00 | 0.00 | 66 | 1014.6 |
| 20260831163319 | 30 | 21 | 1.6 | 1.6 | 0.00 | 0.00 | 0.00 | 66 | 1014.5 |
| 20260831162817 | 30 | 51 | 1.6 | 3.2 | 0.00 | 0.00 | 0.00 | 66 | 1014.6 |
| 20260831162312 | 30 | 35 | 1.6 | 1.6 | 0.00 | 0.00 | 0.00 | 67 | 1014.8 |
| 20260831161811 | 30 | 29 | 0.0 | 1.6 | 0.00 | 0.00 | 0.00 | 70 | 1014.7 |
| 20260831161307 | 28 | 35 | 0.0 | 1.6 | 0.00 | 0.00 | 0.00 | 71 | 1014.6 |
| 20260831160802 | 28 | 35 | 0.0 | 0.0 | 0.00 | 0.00 | 0.00 | 73 | 1014.6 |
| 20260831160257 | 28 | 34 | 0.0 | 0.0 | 0.00 | 0.00 | 0.00 | 76 | 1014.7 |
| 20260831155756 | 28 | 34 | 0.0 | 1.6 | 0.00 | 0.00 | 0.00 | 75 | 1014.8 |
| 20260831155252 | 28 | 31 | 0.0 | 0.0 | 0.00 | 0.00 | 0.00 | 75 | 1015.0 |
| 20260831154748 | 28 | 13 | 1.6 | 1.6 | 0.00 | 0.00 | 0.00 | 75 | 1015.0 |
| 20260831154244 | 28 | 32 | 0.0 | 0.0 | 0.00 | 0.00 | 0.00 | 77 | 1014.9 |
| 20260831153742 | 28 | 33 | 0.0 | 1.6 | 0.00 | 0.00 | 0.00 | 76 | 1015.0 |
| 20260831153238 | 28 | 31 | 0.0 | 0.0 | 0.00 | 0.00 | 0.00 | 76 | 1014.8 |
| 20260831152734 | 27 | 14 | 1.6 | 3.2 | 0.00 | 0.00 | 0.00 | 76 | 1015.0 |
| 20260831152230 | 28 | 15 | 1.6 | 3.2 | 0.00 | 0.00 | 0.00 | 77 | 1014.7 |
| 20260831151730 | 28 | 38 | 0.0 | 1.6 | 0.00 | 0.00 | 0.00 | 77 | 1014.9 |
| 20260831151229 | 28 | 29 | 0.0 | 1.6 | 0.00 | 0.00 | 0.00 | 76 | 1014.8 |
| 20260831150725 | 27 | 43 | 0.0 | 1.6 | 0.00 | 0.00 | 0.00 | 78 | 1014.8 |
| 20260831150220 | 27 | 25 | 1.6 | 3.2 | 0.00 | 0.00 | 0.00 | 78 | 1014.8 |
| 20260831145719 | 27 | 12 | 1.6 | 4.8 | 0.00 | 0.00 | 0.00 | 80 | 1015.0 |
| 20260831145216 | 27 | 18 | 1.6 | 3.2 | 0.00 | 0.00 | 0.00 | 81 | 1015.0 |
| 20260831144711 | 26 | 18 | 0.0 | 1.6 | 0.00 | 0.00 | 0.00 | 81 | 1015.1 |
| 20260831144207 | 26 | 12 | 1.6 | 3.2 | 0.00 | 0.00 | 0.00 | 84 | 1015.0 |
| 20260831143706 | 26 | 16 | 0.0 | 1.6 | 0.00 | 0.00 | 0.00 | 85 | 1014.9 |
| 20260831143202 | 26 | 23 | 0.0 | 3.2 | 0.00 | 0.00 | 0.00 | 85 | 1014.9 |
| 20260831142658 | 26 | 23 | 1.6 | 4.8 | 0.00 | 0.00 | 0.00 | 85 | 1015.0 |
| 20260831142153 | 26 | 18 | 1.6 | 4.8 | 0.00 | 0.00 | 0.00 | 87 | 1014.9 |
| 20260831141652 | 25 | 21 | 1.6 | 3.2 | 0.00 | 0.00 | 0.00 | 88 | 1015.0 |
| 20260831141147 | 25 | 16 | 1.6 | 1.6 | 0.00 | 0.00 | 0.00 | 88 | 1015.0 |
| 20260831140646 | 25 | 22 | 0.0 | 1.6 | 0.00 | 0.00 | 0.00 | 90 | 1014.8 |
| 20260831140141 | 25 | 10 | 1.6 | 1.6 | 0.00 | 0.00 | 0.00 | 91 | 1015.1 |
| 20260831135639 | 25 | 11 | 0.0 | 0.0 | 0.00 | 0.00 | 0.00 | 92 | 1015.0 |
| 20260831135135 | 25 | 24 | 0.0 | 0.0 | 0.00 | 0.00 | 0.00 | 93 | 1014.8 |
| 20260831134631 | 24 | 22 | 0.0 | 0.0 | 0.00 | 0.00 | 0.00 | 94 | 1014.8 |
| 20260831134126 | 24 | 23 | 0.0 | 0.0 | 0.00 | 0.00 | 0.00 | 95 | 1014.8 |
| 20260831133625 | 24 | 20 | 0.0 | 0.0 | 0.00 | 0.00 | 0.00 | 96 | 1014.7 |
| 20260831133120 | 24 | 17 | 0.0 | 1.6 | 0.00 | 0.00 | 0.00 | 96 | 1014.9 |
| 20260831132616 | 23 | 22 | 0.0 | 0.0 | 0.00 | 0.00 | 0.00 | 96 | 1014.8 |
| 20260831132115 | 23 | 24 | 0.0 | 1.6 | 0.00 | 0.00 | 0.00 | 96 | 1014.8 |
| 20260831131610 | 23 | 24 | 0.0 | 1.6 | 0.00 | 0.00 | 0.00 | 97 | 1014.9 |
| 20260831131107 | 23 | 26 | 0.0 | 0.0 | 0.00 | 0.00 | 0.00 | 97 | 1014.8 |
| 20260831130601 | 23 | 30 | 0.0 | 0.0 | 0.00 | 0.00 | 0.00 | 97 | 1014.8 |
| 20260831130057 | 23 | 31 | 0.0 | 0.0 | 0.00 | 0.00 | 0.00 | 97 | 1014.7 |
| 20260831125555 | 23 | 25 | 0.0 | 0.0 | 0.00 | 0.00 | 0.00 | 97 | 1014.8 |
| 20260831125051 | 23 | 30 | 0.0 | 0.0 | 0.00 | 0.00 | 0.00 | 97 | 1014.8 |
| 20260831124547 | 23 | 26 | 0.0 | 0.0 | 0.00 | 0.00 | 0.00 | 97 | 1014.8 |
| 20260831124043 | 23 | 343 | 0.0 | 0.0 | 0.00 | 0.00 | 0.00 | 97 | 1014.7 |
| 20260831123542 | 22 | 350 | 0.0 | 0.0 | 0.00 | 0.00 | 0.00 | 97 | 1014.7 |
| 20260831123036 | 22 | 350 | 0.0 | 0.0 | 0.00 | 0.00 | 0.00 | 97 | 1014.8 |
| 20260831122531 | 22 | 350 | 0.0 | 0.0 | 0.00 | 0.00 | 0.00 | 97 | 1014.7 |
| 20260831122026 | 22 | 350 | 0.0 | 0.0 | 0.00 | 0.00 | 0.00 | 97 | 1014.5 |
| 20260831121527 | 22 | 350 | 0.0 | 0.0 | 0.00 | 0.00 | 0.00 | 97 | 1014.8 |
| 20260831121023 | 22 | 350 | 0.0 | 0.0 | 0.00 | 0.00 | 0.00 | 97 | 1014.6 |
| 20260831120522 | 22 | 350 | 0.0 | 0.0 | 0.00 | 0.00 | 0.00 | 97 | 1014.5 |
| 20260831120018 | 22 | 350 | 0.0 | 0.0 | 0.00 | 0.00 | 0.00 | 97 | 1014.4 |
| 20260831115514 | 22 | 350 | 0.0 | 0.0 | 0.00 | 0.00 | 0.00 | 97 | 1014.4 |
| 20260831115009 | 22 | 351 | 0.0 | 0.0 | 0.00 | 0.00 | 0.00 | 97 | 1014.3 |
| 20260831114507 | 22 | 347 | 0.0 | 0.0 | 0.00 | 0.00 | 0.00 | 97 | 1014.4 |
| 20260831114003 | 22 | 351 | 0.0 | 0.0 | 0.00 | 0.00 | 0.00 | 97 | 1014.4 |
| 20260831113501 | 22 | 350 | 0.0 | 0.0 | 0.00 | 0.00 | 0.00 | 97 | 1014.3 |
| 20260831112957 | 22 | 350 | 0.0 | 0.0 | 0.00 | 0.00 | 0.00 | 97 | 1014.4 |
| 20260831112452 | 22 | 351 | 0.0 | 0.0 | 0.00 | 0.00 | 0.00 | 97 | 1014.1 |
| 20260831111947 | 22 | 348 | 0.0 | 0.0 | 0.00 | 0.00 | 0.00 | 96 | 1014.2 |
| 20260831111443 | 22 | 348 | 0.0 | 0.0 | 0.00 | 0.00 | 0.00 | 96 | 1014.3 |
| 20260831110938 | 22 | 351 | 0.0 | 0.0 | 0.00 | 0.00 | 0.00 | 96 | 1014.1 |
| 20260831110433 | 22 | 351 | 0.0 | 0.0 | 0.00 | 0.00 | 0.00 | 96 | 1014.3 |
| 20260831105932 | 22 | 351 | 0.0 | 0.0 | 0.00 | 0.00 | 0.00 | 96 | 1014.3 |
| 20260831105428 | 22 | 351 | 0.0 | 0.0 | 0.00 | 0.00 | 0.00 | 96 | 1014.1 |
| 20260831104923 | 22 | 351 | 0.0 | 0.0 | 0.00 | 0.00 | 0.00 | 96 | 1014.2 |
| 20260831104419 | 22 | 353 | 0.0 | 0.0 | 0.00 | 0.00 | 0.00 | 96 | 1014.0 |
| 20260831103914 | 22 | 347 | 0.0 | 0.0 | 0.00 | 0.00 | 0.00 | 96 | 1014.1 |
| 20260831103414 | 22 | 350 | 0.0 | 0.0 | 0.00 | 0.00 | 0.00 | 96 | 1014.0 |
| 20260831102909 | 22 | 351 | 0.0 | 0.0 | 0.00 | 0.00 | 0.00 | 96 | 1013.9 |
| 20260831102404 | 22 | 351 | 0.0 | 0.0 | 0.00 | 0.00 | 0.00 | 96 | 1014.1 |
| 20260831101859 | 22 | 350 | 0.0 | 0.0 | 0.00 | 0.00 | 0.00 | 96 | 1014.1 |
| 20260831101354 | 22 | 350 | 0.0 | 0.0 | 0.00 | 0.00 | 0.00 | 96 | 1014.1 |
| 20260831100851 | 22 | 350 | 0.0 | 0.0 | 0.00 | 0.00 | 0.00 | 96 | 1014.2 |
| 20260831100347 | 22 | 351 | 0.0 | 0.0 | 0.00 | 0.00 | 0.00 | 96 | 1014.1 |
| 20260831095846 | 22 | 351 | 0.0 | 0.0 | 0.00 | 0.00 | 0.00 | 96 | 1014.0 |
| 20260831095345 | 22 | 351 | 0.0 | 0.0 | 0.00 | 0.00 | 0.00 | 96 | 1014.1 |
| 20260831094841 | 22 | 350 | 0.0 | 0.0 | 0.00 | 0.00 | 0.00 | 96 | 1013.8 |
| 20260831094336 | 22 | 350 | 0.0 | 0.0 | 0.00 | 0.00 | 0.00 | 96 | 1014.0 |
| 20260831093832 | 22 | 350 | 0.0 | 0.0 | 0.00 | 0.00 | 0.00 | 96 | 1014.1 |
| 20260831093327 | 22 | 351 | 0.0 | 0.0 | 0.00 | 0.00 | 0.00 | 96 | 1013.8 |
| 20260831092824 | 22 | 350 | 0.0 | 0.0 | 0.00 | 0.00 | 0.00 | 96 | 1014.0 |
| 20260831092319 | 22 | 350 | 0.0 | 0.0 | 0.00 | 0.00 | 0.00 | 95 | 1014.2 |
| 20260831091814 | 22 | 351 | 0.0 | 0.0 | 0.00 | 0.00 | 0.00 | 95 | 1014.0 |
| 20260831091310 | 22 | 351 | 0.0 | 0.0 | 0.00 | 0.00 | 0.00 | 95 | 1014.0 |
| 20260831090805 | 22 | 351 | 0.0 | 0.0 | 0.00 | 0.00 | 0.00 | 95 | 1013.6 |
| 20260831090301 | 22 | 351 | 0.0 | 0.0 | 0.00 | 0.00 | 0.00 | 95 | 1014.1 |
| 20260831085757 | 22 | 351 | 0.0 | 0.0 | 0.00 | 0.00 | 0.00 | 95 | 1013.8 |
| 20260831085251 | 22 | 352 | 0.0 | 0.0 | 0.00 | 0.00 | 0.00 | 95 | 1014.0 |
| 20260831084746 | 23 | 353 | 0.0 | 0.0 | 0.00 | 0.00 | 0.00 | 95 | 1013.8 |
| 20260831084243 | 23 | 352 | 0.0 | 0.0 | 0.00 | 0.00 | 0.00 | 95 | 1013.9 |
| 20260831083738 | 23 | 352 | 0.0 | 0.0 | 0.00 | 0.00 | 0.00 | 95 | 1013.8 |
| 20260831083234 | 23 | 353 | 0.0 | 0.0 | 0.00 | 0.00 | 0.00 | 95 | 1013.7 |
| 20260831082732 | 23 | 352 | 0.0 | 0.0 | 0.00 | 0.00 | 0.00 | 94 | 1013.8 |
| 20260831082228 | 23 | 353 | 0.0 | 0.0 | 0.00 | 0.00 | 0.00 | 94 | 1013.5 |
| 20260831081723 | 23 | 351 | 0.0 | 0.0 | 0.00 | 0.00 | 0.00 | 94 | 1013.6 |
| 20260831081219 | 23 | 351 | 0.0 | 0.0 | 0.00 | 0.00 | 0.00 | 94 | 1013.5 |
| 20260831080714 | 22 | 351 | 0.0 | 0.0 | 0.00 | 0.00 | 0.00 | 94 | 1013.5 |
| 20260831080208 | 22 | 351 | 0.0 | 0.0 | 0.00 | 0.00 | 0.00 | 94 | 1013.5 |
| 20260831075704 | 22 | 351 | 0.0 | 0.0 | 0.00 | 0.00 | 0.00 | 94 | 1013.6 |
| 20260831075200 | 22 | 352 | 0.0 | 0.0 | 0.00 | 0.00 | 0.00 | 94 | 1013.5 |
| 20260831074659 | 22 | 352 | 0.0 | 0.0 | 0.00 | 0.00 | 0.00 | 93 | 1013.4 |
| 20260831074153 | 23 | 353 | 0.0 | 0.0 | 0.00 | 0.00 | 0.00 | 93 | 1013.1 |
| 20260831073648 | 23 | 353 | 0.0 | 0.0 | 0.00 | 0.00 | 0.00 | 93 | 1013.4 |
| 20260831073148 | 23 | 353 | 0.0 | 0.0 | 0.00 | 0.00 | 0.00 | 93 | 1013.4 |
| 20260831072643 | 23 | 353 | 0.0 | 0.0 | 0.00 | 0.00 | 0.00 | 93 | 1013.2 |
| 20260831072140 | 23 | 355 | 0.0 | 0.0 | 0.00 | 0.00 | 0.00 | 93 | 1013.5 |
| 20260831071638 | 23 | 352 | 0.0 | 0.0 | 0.00 | 0.00 | 0.00 | 93 | 1013.4 |
| 20260831071133 | 23 | 352 | 0.0 | 0.0 | 0.00 | 0.00 | 0.00 | 93 | 1013.5 |
| 20260831070633 | 23 | 352 | 0.0 | 0.0 | 0.00 | 0.00 | 0.00 | 93 | 1013.4 |
| 20260831070128 | 23 | 352 | 0.0 | 0.0 | 0.00 | 0.00 | 0.00 | 92 | 1013.6 |
| 20260831065626 | 23 | 351 | 0.0 | 0.0 | 0.00 | 0.00 | 0.00 | 92 | 1013.7 |
| 20260831065125 | 23 | 351 | 0.0 | 0.0 | 0.00 | 0.00 | 0.00 | 92 | 1013.6 |
| 20260831064620 | 23 | 351 | 0.0 | 0.0 | 0.00 | 0.00 | 0.00 | 92 | 1013.8 |
| 20260831064116 | 23 | 351 | 0.0 | 0.0 | 0.00 | 0.00 | 0.00 | 92 | 1013.6 |
| 20260831063612 | 23 | 351 | 0.0 | 0.0 | 0.00 | 0.00 | 0.00 | 92 | 1013.7 |
| 20260831063107 | 23 | 352 | 0.0 | 0.0 | 0.00 | 0.00 | 0.00 | 92 | 1013.8 |
| 20260831062606 | 23 | 352 | 0.0 | 0.0 | 0.00 | 0.00 | 0.00 | 92 | 1013.8 |
| 20260831062101 | 23 | 353 | 0.0 | 0.0 | 0.00 | 0.00 | 0.00 | 92 | 1013.8 |
| 20260831061559 | 23 | 354 | 0.0 | 0.0 | 0.00 | 0.00 | 0.00 | 91 | 1014.0 |
| 20260831061055 | 23 | 351 | 0.0 | 0.0 | 0.00 | 0.00 | 0.00 | 91 | 1013.8 |
| 20260831060550 | 23 | 351 | 0.0 | 0.0 | 0.00 | 0.00 | 0.00 | 91 | 1013.9 |
| 20260831060045 | 23 | 352 | 0.0 | 0.0 | 0.00 | 0.00 | 0.00 | 91 | 1013.7 |
| 20260831055539 | 23 | 353 | 0.0 | 0.0 | 0.00 | 0.00 | 0.00 | 91 | 1013.8 |
| 20260831055035 | 23 | 353 | 0.0 | 0.0 | 0.00 | 0.00 | 0.00 | 91 | 1013.8 |
| 20260831054535 | 23 | 351 | 0.0 | 0.0 | 0.00 | 0.00 | 0.00 | 91 | 1013.9 |
| 20260831054034 | 23 | 351 | 0.0 | 0.0 | 0.00 | 0.00 | 0.00 | 91 | 1013.9 |
| 20260831053532 | 23 | 351 | 0.0 | 0.0 | 0.00 | 0.00 | 0.00 | 91 | 1013.7 |
| 20260831053028 | 23 | 351 | 0.0 | 0.0 | 0.00 | 0.00 | 0.00 | 91 | 1013.9 |
| 20260831052526 | 23 | 352 | 0.0 | 0.0 | 0.00 | 0.00 | 0.00 | 91 | 1014.0 |
| 20260831052026 | 23 | 352 | 0.0 | 0.0 | 0.00 | 0.00 | 0.00 | 90 | 1013.9 |
| 20260831051524 | 23 | 352 | 0.0 | 0.0 | 0.00 | 0.00 | 0.00 | 90 | 1014.2 |
| 20260831051024 | 23 | 352 | 0.0 | 0.0 | 0.00 | 0.00 | 0.00 | 90 | 1014.1 |
| 20260831050524 | 23 | 352 | 0.0 | 0.0 | 0.00 | 0.00 | 0.00 | 90 | 1014.2 |
| 20260831050022 | 23 | 352 | 0.0 | 0.0 | 0.00 | 0.00 | 0.00 | 90 | 1014.1 |
| 20260831045522 | 23 | 352 | 0.0 | 0.0 | 0.00 | 0.00 | 0.00 | 90 | 1013.8 |
| 20260831045017 | 23 | 352 | 0.0 | 0.0 | 0.00 | 0.00 | 0.00 | 90 | 1014.1 |
| 20260831044512 | 23 | 353 | 0.0 | 0.0 | 0.00 | 0.00 | 0.00 | 90 | 1014.1 |
| 20260831044008 | 23 | 352 | 0.0 | 0.0 | 0.00 | 0.00 | 0.00 | 90 | 1014.1 |
| 20260831043507 | 24 | 352 | 0.0 | 0.0 | 0.00 | 0.00 | 0.00 | 90 | 1014.2 |
| 20260831043002 | 24 | 352 | 0.0 | 0.0 | 0.00 | 0.00 | 0.00 | 90 | 1014.3 |
| 20260831042457 | 24 | 352 | 0.0 | 0.0 | 0.00 | 0.00 | 0.00 | 90 | 1014.2 |
| 20260831041956 | 24 | 352 | 0.0 | 0.0 | 0.00 | 0.00 | 0.00 | 90 | 1014.2 |
| 20260831041451 | 24 | 351 | 0.0 | 0.0 | 0.00 | 0.00 | 0.00 | 89 | 1014.4 |
| 20260831040946 | 24 | 353 | 0.0 | 1.6 | 0.00 | 0.00 | 0.00 | 89 | 1014.2 |
| 20260831040441 | 24 | 351 | 0.0 | 0.0 | 0.00 | 0.00 | 0.00 | 89 | 1014.1 |
| 20260831035938 | 25 | 353 | 0.0 | 0.0 | 0.00 | 0.00 | 0.00 | 89 | 1014.3 |
| 20260831035438 | 25 | 353 | 0.0 | 0.0 | 0.00 | 0.00 | 0.00 | 89 | 1014.4 |
| 20260831034932 | 25 | 347 | 0.0 | 0.0 | 0.00 | 0.00 | 0.00 | 89 | 1014.3 |
| 20260831034428 | 25 | 347 | 0.0 | 0.0 | 0.00 | 0.00 | 0.00 | 89 | 1014.2 |
| 20260831033923 | 25 | 347 | 0.0 | 0.0 | 0.00 | 0.00 | 0.00 | 89 | 1014.1 |
| 20260831033419 | 25 | 347 | 0.0 | 0.0 | 0.00 | 0.00 | 0.00 | 88 | 1014.3 |
| 20260831032914 | 25 | 347 | 0.0 | 0.0 | 0.00 | 0.00 | 0.00 | 88 | 1014.2 |
| 20260831032408 | 25 | 347 | 0.0 | 0.0 | 0.00 | 0.00 | 0.00 | 88 | 1014.1 |
| 20260831031903 | 25 | 347 | 0.0 | 0.0 | 0.00 | 0.00 | 0.00 | 88 | 1014.2 |
| 20260831031402 | 25 | 347 | 0.0 | 1.6 | 0.00 | 0.00 | 0.00 | 88 | 1014.1 |
| 20260831030857 | 25 | 347 | 0.0 | 0.0 | 0.00 | 0.00 | 0.00 | 88 | 1014.1 |
| 20260831030356 | 25 | 352 | 0.0 | 1.6 | 0.00 | 0.00 | 0.00 | 87 | 1014.4 |
| 20260831025855 | 25 | 347 | 0.0 | 0.0 | 0.00 | 0.00 | 0.00 | 87 | 1014.3 |
| 20260831025355 | 25 | 340 | 0.0 | 0.0 | 0.00 | 0.00 | 0.00 | 87 | 1014.2 |
| 20260831024850 | 25 | 341 | 0.0 | 0.0 | 0.00 | 0.00 | 0.00 | 87 | 1014.3 |
| 20260831024350 | 25 | 340 | 0.0 | 0.0 | 0.00 | 0.00 | 0.00 | 86 | 1014.5 |
| 20260831023849 | 25 | 340 | 0.0 | 0.0 | 0.00 | 0.00 | 0.00 | 86 | 1014.0 |
| 20260831023347 | 25 | 340 | 0.0 | 0.0 | 0.00 | 0.00 | 0.00 | 86 | 1013.9 |
| 20260831022842 | 25 | 340 | 0.0 | 0.0 | 0.00 | 0.00 | 0.00 | 85 | 1014.0 |
| 20260831022342 | 25 | 340 | 0.0 | 0.0 | 0.00 | 0.00 | 0.00 | 85 | 1013.9 |
| 20260831021836 | 26 | 340 | 0.0 | 0.0 | 0.00 | 0.00 | 0.00 | 84 | 1014.1 |
| 20260831021331 | 26 | 340 | 0.0 | 0.0 | 0.00 | 0.00 | 0.00 | 84 | 1014.1 |
| 20260831020827 | 26 | 340 | 0.0 | 0.0 | 0.00 | 0.00 | 0.00 | 83 | 1014.1 |
| 20260831020326 | 26 | 339 | 0.0 | 0.0 | 0.00 | 0.00 | 0.00 | 83 | 1014.1 |
| 20260831015822 | 26 | 339 | 0.0 | 0.0 | 0.00 | 0.00 | 0.00 | 81 | 1014.3 |
| 20260831015317 | 26 | 339 | 0.0 | 0.0 | 0.00 | 0.00 | 0.00 | 81 | 1014.1 |
| 20260831014812 | 26 | 339 | 0.0 | 0.0 | 0.00 | 0.00 | 0.00 | 81 | 1014.0 |
| 20260831014307 | 26 | 339 | 0.0 | 0.0 | 0.00 | 0.00 | 0.00 | 81 | 1014.0 |
| 20260831013803 | 26 | 339 | 0.0 | 0.0 | 0.00 | 0.00 | 0.00 | 81 | 1014.0 |
| 20260831013302 | 26 | 339 | 0.0 | 0.0 | 0.00 | 0.00 | 0.00 | 82 | 1014.1 |
| 20260831012757 | 26 | 339 | 0.0 | 0.0 | 0.00 | 0.00 | 0.00 | 82 | 1013.8 |
| 20260831012253 | 26 | 338 | 0.0 | 0.0 | 0.00 | 0.00 | 0.00 | 82 | 1014.0 |
| 20260831011751 | 26 | 345 | 0.0 | 0.0 | 0.00 | 0.00 | 0.00 | 81 | 1013.9 |
| 20260831011247 | 26 | 343 | 0.0 | 0.0 | 0.00 | 0.00 | 0.00 | 81 | 1013.8 |
| 20260831010742 | 26 | 345 | 0.0 | 0.0 | 0.00 | 0.00 | 0.00 | 81 | 1013.8 |
| 20260831010237 | 26 | 344 | 0.0 | 0.0 | 0.00 | 0.00 | 0.00 | 81 | 1013.5 |
| 20260831005733 | 26 | 344 | 0.0 | 0.0 | 0.00 | 0.00 | 0.00 | 81 | 1013.6 |
| 20260831005228 | 26 | 346 | 0.0 | 1.6 | 0.00 | 0.00 | 0.00 | 82 | 1013.7 |
| 20260831004723 | 26 | 344 | 1.6 | 1.6 | 0.00 | 0.00 | 0.00 | 83 | 1013.5 |
| 20260831004220 | 26 | 342 | 0.0 | 0.0 | 0.00 | 0.00 | 0.00 | 82 | 1013.5 |
| 20260831003715 | 27 | 342 | 0.0 | 0.0 | 0.00 | 0.00 | 0.00 | 82 | 1013.6 |
| 20260831003211 | 27 | 342 | 0.0 | 0.0 | 0.00 | 0.00 | 0.00 | 82 | 1013.5 |
| 20260831002709 | 27 | 342 | 0.0 | 0.0 | 0.00 | 0.00 | 0.00 | 81 | 1013.5 |
| 20260831002204 | 27 | 342 | 0.0 | 0.0 | 0.00 | 0.00 | 0.00 | 81 | 1013.4 |
| 20260831001701 | 27 | 342 | 0.0 | 0.0 | 0.00 | 0.00 | 0.00 | 80 | 1013.5 |
| 20260831001200 | 27 | 341 | 0.0 | 0.0 | 0.00 | 0.00 | 0.00 | 80 | 1013.0 |
| 20260831000657 | 27 | 341 | 0.0 | 0.0 | 0.00 | 0.00 | 0.00 | 79 | 1013.1 |
| 20260831000152 | 27 | 344 | 0.0 | 0.0 | 0.00 | 0.00 | 0.00 | 78 | 1013.1 |
| 20260830235650 | 28 | 51 | 0.0 | 0.0 | 0.00 | 0.00 | 0.00 | 77 | 1013.2 |
| 20260830235146 | 28 | 51 | 0.0 | 0.0 | 0.00 | 0.00 | 0.00 | 77 | 1013.1 |
| 20260830234641 | 28 | 51 | 0.0 | 0.0 | 0.00 | 0.00 | 0.00 | 76 | 1013.2 |
| 20260830234137 | 28 | 51 | 0.0 | 0.0 | 0.00 | 0.00 | 0.00 | 75 | 1013.2 |
| 20260830233632 | 28 | 52 | 0.0 | 0.0 | 0.00 | 0.00 | 0.00 | 73 | 1013.1 |
| 20260830233128 | 29 | 52 | 0.0 | 0.0 | 0.00 | 0.00 | 0.00 | 72 | 1013.1 |
| 20260830232623 | 29 | 52 | 0.0 | 0.0 | 0.00 | 0.00 | 0.00 | 71 | 1013.3 |
| 20260830232119 | 29 | 52 | 0.0 | 1.6 | 0.00 | 0.00 | 0.00 | 70 | 1013.1 |
| 20260830231615 | 29 | 52 | 0.0 | 0.0 | 0.00 | 0.00 | 0.00 | 70 | 1013.1 |
| 20260830231114 | 29 | 52 | 0.0 | 1.6 | 0.00 | 0.00 | 0.00 | 70 | 1013.2 |
| 20260830230610 | 29 | 52 | 0.0 | 1.6 | 0.00 | 0.00 | 0.00 | 70 | 1013.1 |
| 20260830230104 | 30 | 52 | 0.0 | 1.6 | 0.00 | 0.00 | 0.00 | 69 | 1013.3 |
| 20260830225559 | 30 | 52 | 0.0 | 0.0 | 0.00 | 0.00 | 0.00 | 68 | 1013.0 |
| 20260830225054 | 30 | 52 | 0.0 | 1.6 | 0.00 | 0.00 | 0.00 | 68 | 1012.9 |
| 20260830224552 | 30 | 52 | 0.0 | 1.6 | 0.00 | 0.00 | 0.00 | 68 | 1013.0 |
| 20260830224049 | 30 | 52 | 0.0 | 1.6 | 0.00 | 0.00 | 0.00 | 69 | 1013.1 |
| 20260830223545 | 30 | 52 | 1.6 | 1.6 | 0.00 | 0.00 | 0.00 | 69 | 1012.9 |
| 20260830223039 | 30 | 47 | 0.0 | 1.6 | 0.00 | 0.00 | 0.00 | 68 | 1013.0 |
| 20260830222534 | 30 | 47 | 0.0 | 1.6 | 0.00 | 0.00 | 0.00 | 67 | 1012.9 |
| 20260830222030 | 30 | 47 | 0.0 | 1.6 | 0.00 | 0.00 | 0.00 | 66 | 1013.1 |
| 20260830221526 | 30 | 47 | 0.0 | 1.6 | 0.00 | 0.00 | 0.00 | 65 | 1012.9 |
| 20260830221022 | 30 | 57 | 3.2 | 3.2 | 0.00 | 0.00 | 0.00 | 65 | 1013.0 |
| 20260830220521 | 30 | 43 | 0.0 | 1.6 | 0.00 | 0.00 | 0.00 | 67 | 1012.9 |
| 20260830220020 | 30 | 43 | 0.0 | 3.2 | 0.00 | 0.00 | 0.00 | 66 | 1013.1 |
| 20260830215514 | 30 | 47 | 1.6 | 1.6 | 0.00 | 0.00 | 0.00 | 66 | 1013.1 |
| 20260830215009 | 30 | 50 | 1.6 | 4.8 | 0.00 | 0.00 | 0.00 | 65 | 1012.9 |
| 20260830214504 | 30 | 46 | 0.0 | 3.2 | 0.00 | 0.00 | 0.00 | 65 | 1012.9 |
| 20260830213958 | 30 | 46 | 1.6 | 1.6 | 0.00 | 0.00 | 0.00 | 64 | 1012.8 |
| 20260830213453 | 30 | 44 | 0.0 | 3.2 | 0.00 | 0.00 | 0.00 | 66 | 1012.8 |
| 20260830212948 | 30 | 49 | 0.0 | 1.6 | 0.00 | 0.00 | 0.00 | 66 | 1012.9 |
| 20260830212444 | 30 | 43 | 1.6 | 3.2 | 0.00 | 0.00 | 0.00 | 65 | 1013.1 |
| 20260830211943 | 30 | 44 | 0.0 | 1.6 | 0.00 | 0.00 | 0.00 | 65 | 1013.1 |
| 20260830211438 | 30 | 48 | 0.0 | 1.6 | 0.00 | 0.00 | 0.00 | 64 | 1012.9 |
| 20260830210934 | 30 | 50 | 1.6 | 1.6 | 0.00 | 0.00 | 0.00 | 63 | 1012.9 |
| 20260830210434 | 30 | 59 | 1.6 | 3.2 | 0.00 | 0.00 | 0.00 | 63 | 1013.2 |
| 20260830205931 | 30 | 46 | 1.6 | 1.6 | 0.00 | 0.00 | 0.00 | 62 | 1013.2 |
| 20260830205430 | 30 | 49 | 0.0 | 3.2 | 0.00 | 0.00 | 0.00 | 61 | 1013.4 |
| 20260830204926 | 30 | 44 | 0.0 | 3.2 | 0.00 | 0.00 | 0.00 | 65 | 1013.4 |
| 20260830204425 | 30 | 43 | 1.6 | 4.8 | 0.00 | 0.00 | 0.00 | 63 | 1013.4 |
| 20260830203920 | 30 | 37 | 0.0 | 1.6 | 0.00 | 0.00 | 0.00 | 65 | 1013.4 |
| 20260830203416 | 30 | 45 | 3.2 | 8.0 | 0.00 | 0.00 | 0.00 | 66 | 1013.4 |
| 20260830202915 | 30 | 44 | 0.0 | 3.2 | 0.00 | 0.00 | 0.00 | 64 | 1013.3 |
| 20260830202411 | 31 | 63 | 3.2 | 3.2 | 0.00 | 0.00 | 0.00 | 65 | 1013.6 |
| 20260830201907 | 31 | 72 | 3.2 | 4.8 | 0.00 | 0.00 | 0.00 | 65 | 1013.7 |
| 20260830201400 | 31 | 45 | 0.0 | 1.6 | 0.00 | 0.00 | 0.00 | 64 | 1013.7 |
| 20260830200856 | 32 | 44 | 0.0 | 1.6 | 0.00 | 0.00 | 0.00 | 63 | 1013.7 |
| 20260830200355 | 31 | 44 | 0.0 | 1.6 | 0.00 | 0.00 | 0.00 | 64 | 1013.7 |
| 20260830195845 | 32 | 40 | 0.0 | 1.6 | 0.00 | 0.00 | 0.00 | 63 | 1013.7 |
| 20260830195344 | 31 | 35 | 0.0 | 0.0 | 0.00 | 0.00 | 0.00 | 63 | 1014.0 |
| 20260830194843 | 31 | 56 | 3.2 | 3.2 | 0.00 | 0.00 | 0.00 | 62 | 1013.7 |
| 20260830194336 | 31 | 40 | 1.6 | 3.2 | 0.00 | 0.00 | 0.00 | 62 | 1013.8 |
| 20260830193831 | 31 | 32 | 0.0 | 1.6 | 0.00 | 0.00 | 0.00 | 65 | 1014.0 |
| 20260830193325 | 30 | 38 | 0.0 | 3.2 | 0.00 | 0.00 | 0.00 | 70 | 1014.2 |
| 20260830192822 | 29 | 43 | 1.6 | 1.6 | 0.00 | 0.00 | 0.00 | 70 | 1014.3 |
| 20260830192321 | 30 | 52 | 1.6 | 3.2 | 0.00 | 0.00 | 0.00 | 70 | 1014.5 |
| 20260830191817 | 30 | 45 | 0.0 | 1.6 | 0.00 | 0.00 | 0.00 | 69 | 1014.2 |
| 20260830191316 | 30 | 33 | 0.0 | 1.6 | 0.00 | 0.00 | 0.00 | 67 | 1014.3 |
| 20260830190813 | 31 | 39 | 0.0 | 1.6 | 0.00 | 0.00 | 0.00 | 65 | 1014.5 |
| 20260830190312 | 31 | 35 | 0.0 | 1.6 | 0.00 | 0.00 | 0.00 | 63 | 1014.2 |
| 20260830185811 | 31 | 45 | 3.2 | 3.2 | 0.00 | 0.00 | 0.00 | 64 | 1014.4 |
| 20260830185306 | 30 | 36 | 3.2 | 3.2 | 0.00 | 0.00 | 0.00 | 64 | 1014.4 |
| 20260830184801 | 31 | 54 | 0.0 | 4.8 | 0.00 | 0.00 | 0.00 | 67 | 1014.6 |
| 20260830184300 | 30 | 47 | 0.0 | 1.6 | 0.00 | 0.00 | 0.00 | 68 | 1014.6 |
| 20260830183756 | 30 | 36 | 0.0 | 1.6 | 0.00 | 0.00 | 0.00 | 70 | 1014.7 |
| 20260830183255 | 30 | 41 | 1.6 | 3.2 | 0.00 | 0.00 | 0.00 | 69 | 1014.8 |
| 20260830182751 | 29 | 56 | 3.2 | 3.2 | 0.00 | 0.00 | 0.00 | 69 | 1015.0 |
| 20260830182247 | 30 | 44 | 1.6 | 1.6 | 0.00 | 0.00 | 0.00 | 70 | 1014.8 |